����,���ϕ���(m/s),���ϕ���,�ő�u�ԕ���(m/s),�ő啗��������,�C��(��),���x(%),10���Ԉړ��ώZ�J��(mm),1���Ԉړ��ώZ�J��(mm),���J��(mm),�݌v�J��(mm),����(���ώZ)(MJ/m2),����(���ώZ)(min),���n�C��(hPa),�C�ʋC��(hPa)
2023-09-25T00:00:00+09:00,1.8,�k�k��,2.6,�k��,19.8,89.6,0,0,0,0,18.89,580,1006.2,1019.9
2023-09-25T00:01:00+09:00,1.8,�k�k��,2.6,�k��,19.7,89.4,0,0,0,0,0,0,1006.2,1019.9
2023-09-25T00:02:00+09:00,1.9,�k�k��,3.2,�k,19.8,89.8,0,0,0,0,0,0,1006.2,1019.9
2023-09-25T00:03:00+09:00,1.9,�k�k��,3.2,�k,20.1,90.7,0,0,0,0,0,0,1006.2,1019.9
2023-09-25T00:04:00+09:00,1.8,�k�k��,3.2,�k,19.9,90.4,0,0,0,0,0,0,1006.2,1019.9
2023-09-25T00:05:00+09:00,1.8,�k�k��,3.2,�k,19.9,90.1,0,0,0,0,0,0,1006.2,1019.9
2023-09-25T00:06:00+09:00,1.7,�k�k��,3.2,�k,19.8,90,0,0,0,0,0,0,1006.2,1019.9
2023-09-25T00:07:00+09:00,1.7,�k�k��,3.2,�k,19.7,89.5,0,0,0,0,0,0,1006.2,1019.9
2023-09-25T00:08:00+09:00,1.8,�k�k��,3.2,�k,19.6,89.4,0,0,0,0,0,0,1006.1,1019.8
2023-09-25T00:09:00+09:00,1.8,�k��,3.5,�k��,19.7,89.9,0,0,0,0,0,0,1006.1,1019.8
2023-09-25T00:10:00+09:00,1.9,�k��,3.6,�k��,19.5,90,0,0,0,0,0,0,1006.1,1019.8
2023-09-25T00:11:00+09:00,2,�k��,3.6,�k��,19.9,90.9,0,0,0,0,0,0,1006.1,1019.8
2023-09-25T00:12:00+09:00,2,�k��,3.6,�k��,19.9,91.1,0,0,0,0,0,0,1006.1,1019.8
2023-09-25T00:13:00+09:00,2.1,�k��,3.6,�k��,20,90.7,0,0,0,0,0,0,1006.1,1019.8
2023-09-25T00:14:00+09:00,2.1,�k��,3.6,�k��,19.9,90.4,0,0,0,0,0,0,1006,1019.7
2023-09-25T00:15:00+09:00,2.2,�k��,3.6,�k��,19.9,90.3,0,0,0,0,0,0,1006,1019.7
2023-09-25T00:16:00+09:00,2.3,�k��,3.6,�k��,19.9,89.9,0,0,0,0,0,0,1006,1019.7
2023-09-25T00:17:00+09:00,2.3,�k��,3.6,�k��,20,89.8,0,0,0,0,0,0,1005.9,1019.6
2023-09-25T00:18:00+09:00,2.3,�k��,3.6,�k��,20,89.8,0,0,0,0,0,0,1005.9,1019.6
2023-09-25T00:19:00+09:00,2.2,�k��,3.6,�k��,19.8,89.5,0,0,0,0,0,0,1005.9,1019.6
2023-09-25T00:20:00+09:00,2.2,�k��,3.4,�k�k��,19.7,88.9,0,0,0,0,0,0,1005.9,1019.6
2023-09-25T00:21:00+09:00,2.1,�k��,3.2,�k�k��,19.5,89.2,0,0,0,0,0,0,1005.9,1019.6
2023-09-25T00:22:00+09:00,2.1,�k��,3.1,�k��,19.6,89.4,0,0,0,0,0,0,1005.8,1019.5
2023-09-25T00:23:00+09:00,2,�k��,3.1,�k��,19.4,89.7,0,0,0,0,0,0,1005.8,1019.5
2023-09-25T00:24:00+09:00,2,�k��,3,�k��,19.5,90.4,0,0,0,0,0,0,1005.8,1019.5
2023-09-25T00:25:00+09:00,1.8,�k��,3,�k��,19.3,90.2,0,0,0,0,0,0,1005.8,1019.5
2023-09-25T00:26:00+09:00,1.7,�k�k��,3,�k��,19.4,90.7,0,0,0,0,0,0,1005.8,1019.5
2023-09-25T00:27:00+09:00,1.7,�k�k��,3,�k��,19.5,91.4,0,0,0,0,0,0,1005.8,1019.5
2023-09-25T00:28:00+09:00,1.6,�k�k��,3,�k��,19.4,91.5,0,0,0,0,0,0,1005.8,1019.5
2023-09-25T00:29:00+09:00,1.5,�k�k��,3,�k��,19.4,91.4,0,0,0,0,0,0,1005.8,1019.5
2023-09-25T00:30:00+09:00,1.4,�k,3,�k��,19.4,91.6,0,0,0,0,0,0,1005.8,1019.5
2023-09-25T00:31:00+09:00,1.4,�k,3,�k��,19.4,91.6,0,0,0,0,0,0,1005.7,1019.4
2023-09-25T00:32:00+09:00,1.3,�k,3,�k��,19.3,91.7,0,0,0,0,0,0,1005.8,1019.5
2023-09-25T00:33:00+09:00,1.3,�k�k��,3,�k�k��,19.3,91.7,0,0,0,0,0,0,1005.8,1019.5
2023-09-25T00:34:00+09:00,1.3,�k�k��,3,�k�k��,19.3,92.1,0,0,0,0,0,0,1005.8,1019.5
2023-09-25T00:35:00+09:00,1.3,�k�k��,3,�k�k��,19.3,92.2,0,0,0,0,0,0,1005.8,1019.5
2023-09-25T00:36:00+09:00,1.3,�k�k��,3,�k�k��,19.3,92.2,0,0,0,0,0,0,1005.7,1019.4
2023-09-25T00:37:00+09:00,1.2,�k�k��,2.1,���k��,19.3,92.4,0,0,0,0,0,0,1005.7,1019.4
2023-09-25T00:38:00+09:00,1.1,�k�k��,2.1,���k��,19.4,92.5,0,0,0,0,0,0,1005.7,1019.4
2023-09-25T00:39:00+09:00,1.1,�k�k��,2.1,���k��,19.4,92.8,0,0,0,0,0,0,1005.7,1019.4
2023-09-25T00:40:00+09:00,1,�k�k��,2.1,���k��,19.5,92.7,0,0,0,0,0,0,1005.7,1019.4
2023-09-25T00:41:00+09:00,1,�k�k��,2.1,���k��,19.6,92.9,0,0,0,0,0,0,1005.7,1019.4
2023-09-25T00:42:00+09:00,0.9,�k�k��,2.1,���k��,19.4,92.5,0,0,0,0,0,0,1005.7,1019.4
2023-09-25T00:43:00+09:00,0.8,�k�k��,2.1,���k��,19.2,91.6,0,0,0,0,0,0,1005.7,1019.4
2023-09-25T00:44:00+09:00,0.8,�k�k��,2,�k��,19.2,91.7,0,0,0,0,0,0,1005.6,1019.3
2023-09-25T00:45:00+09:00,0.7,�k�k��,1.9,���k��,19.4,92.1,0,0,0,0,0,0,1005.7,1019.4
2023-09-25T00:46:00+09:00,0.8,�k��,1.9,���k��,19.2,92.2,0,0,0,0,0,0,1005.7,1019.4
2023-09-25T00:47:00+09:00,0.8,�k��,1.9,���k��,19.1,92,0,0,0,0,0,0,1005.7,1019.4
2023-09-25T00:48:00+09:00,0.8,�k��,1.9,���k��,19,91.9,0,0,0,0,0,0,1005.7,1019.4
2023-09-25T00:49:00+09:00,0.9,�k��,1.9,���k��,19.2,92.5,0,0,0,0,0,0,1005.7,1019.4
2023-09-25T00:50:00+09:00,1,�k��,1.9,���k��,19.1,92.5,0,0,0,0,0,0,1005.7,1019.4
2023-09-25T00:51:00+09:00,1,�k��,1.9,���k��,19.2,92.8,0,0,0,0,0,0,1005.6,1019.3
2023-09-25T00:52:00+09:00,1,�k��,1.9,���k��,19.4,93.3,0,0,0,0,0,0,1005.6,1019.3
2023-09-25T00:53:00+09:00,1.1,�k��,2,�k��,19.4,93.1,0,0,0,0,0,0,1005.6,1019.3
2023-09-25T00:54:00+09:00,1.1,�k��,2.3,���k��,19.3,92.7,0,0,0,0,0,0,1005.6,1019.3
2023-09-25T00:55:00+09:00,1.2,�k��,2.3,���k��,19.3,92.7,0,0,0,0,0,0,1005.6,1019.3
2023-09-25T00:56:00+09:00,1.3,�k��,2.5,���k��,19.2,92.5,0,0,0,0,0,0,1005.7,1019.4
2023-09-25T00:57:00+09:00,1.4,�k��,2.5,���k��,19.3,92.4,0,0,0,0,0,0,1005.7,1019.4
2023-09-25T00:58:00+09:00,1.3,�k��,2.5,���k��,19.2,92.5,0,0,0,0,0,0,1005.7,1019.4
2023-09-25T00:59:00+09:00,1.3,�k��,2.5,���k��,19.3,92.5,0,0,0,0,0,0,1005.6,1019.3
2023-09-25T01:00:00+09:00,1.3,�k��,2.5,���k��,19.4,92.6,0,0,0,0,0,0,1005.7,1019.4
2023-09-25T01:01:00+09:00,1.4,�k��,2.5,���k��,19.3,92.6,0,0,0,0,0,0,1005.7,1019.4
2023-09-25T01:02:00+09:00,1.4,�k��,2.5,���k��,19.3,92.4,0,0,0,0,0,0,1005.7,1019.4
2023-09-25T01:03:00+09:00,1.4,�k��,2.5,���k��,19.2,92.4,0,0,0,0,0,0,1005.6,1019.3
2023-09-25T01:04:00+09:00,1.4,�k��,2.5,���k��,19.3,92.4,0,0,0,0,0,0,1005.6,1019.3
2023-09-25T01:05:00+09:00,1.5,�k��,2.5,���k��,19.3,92.4,0,0,0,0,0,0,1005.7,1019.4
2023-09-25T01:06:00+09:00,1.5,�k��,2.4,���k��,19.3,92.6,0,0,0,0,0,0,1005.7,1019.4
2023-09-25T01:07:00+09:00,1.5,�k��,2.3,�k��,19.3,92.6,0,0,0,0,0,0,1005.7,1019.4
2023-09-25T01:08:00+09:00,1.6,�k��,2.3,�k��,19.1,92.4,0,0,0,0,0,0,1005.8,1019.5
2023-09-25T01:09:00+09:00,1.6,�k��,2.3,�k��,19.1,92.3,0,0,0,0,0,0,1005.8,1019.5
2023-09-25T01:10:00+09:00,1.6,�k��,2.3,�k��,19.1,92.4,0,0,0,0,0,0,1005.8,1019.5
2023-09-25T01:11:00+09:00,1.5,�k��,2.2,�k��,19.2,92.7,0,0,0,0,0,0,1005.8,1019.5
2023-09-25T01:12:00+09:00,1.5,�k��,2.2,�k��,19.6,93.7,0,0,0,0,0,0,1005.8,1019.5
2023-09-25T01:13:00+09:00,1.5,�k��,2.4,���k��,19.5,93.6,0,0,0,0,0,0,1005.8,1019.5
2023-09-25T01:14:00+09:00,1.6,�k��,2.4,���k��,19.5,92.9,0,0,0,0,0,0,1005.8,1019.5
2023-09-25T01:15:00+09:00,1.6,�k��,2.4,���k��,19.4,92.4,0,0,0,0,0,0,1005.8,1019.5
2023-09-25T01:16:00+09:00,1.5,�k��,2.4,���k��,19.2,91.7,0,0,0,0,0,0,1005.8,1019.5
2023-09-25T01:17:00+09:00,1.4,�k��,2.4,���k��,19.3,91.8,0,0,0,0,0,0,1005.8,1019.5
2023-09-25T01:18:00+09:00,1.3,�k��,2.4,���k��,19.3,91.7,0,0,0,0,0,0,1005.8,1019.5
2023-09-25T01:19:00+09:00,1.2,�k��,2.4,���k��,19.3,92,0,0,0,0,0,0,1005.8,1019.5
2023-09-25T01:20:00+09:00,1.2,�k��,2.4,���k��,19.6,92.4,0,0,0,0,0,0,1005.8,1019.5
2023-09-25T01:21:00+09:00,1.3,�k��,2.4,���k��,19.4,92.3,0,0,0,0,0,0,1005.8,1019.5
2023-09-25T01:22:00+09:00,1.3,�k��,2.4,���k��,19.3,91.8,0,0,0,0,0,0,1005.8,1019.5
2023-09-25T01:23:00+09:00,1.1,�k��,2.3,���k��,19.3,91.6,0,0,0,0,0,0,1005.8,1019.5
2023-09-25T01:24:00+09:00,1,�k�k��,2.3,���k��,19.2,91.9,0,0,0,0,0,0,1005.8,1019.5
2023-09-25T01:25:00+09:00,0.8,�k�k��,2.1,�k��,19.2,92,0,0,0,0,0,0,1005.8,1019.5
2023-09-25T01:26:00+09:00,0.8,�k�k��,2.1,�k��,19.3,92.1,0,0,0,0,0,0,1005.8,1019.5
2023-09-25T01:27:00+09:00,0.8,�k�k��,2.1,�k��,19.3,92.3,0,0,0,0,0,0,1005.8,1019.5
2023-09-25T01:28:00+09:00,0.9,�k�k��,2.1,�k��,19.4,92.5,0,0,0,0,0,0,1005.8,1019.5
2023-09-25T01:29:00+09:00,0.9,�k�k��,2.1,�k��,19.3,92.5,0,0,0,0,0,0,1005.8,1019.5
2023-09-25T01:30:00+09:00,0.9,�k�k��,2.1,�k��,19.3,92.1,0,0,0,0,0,0,1005.8,1019.5
2023-09-25T01:31:00+09:00,0.8,�k�k��,2.1,�k��,19.3,92.2,0,0,0,0,0,0,1005.8,1019.5
2023-09-25T01:32:00+09:00,0.7,�k�k��,2.1,�k,19.4,92.4,0,0,0,0,0,0,1005.8,1019.5
2023-09-25T01:33:00+09:00,0.8,�k�k��,2.1,�k,19.2,92.2,0,0,0,0,0,0,1005.8,1019.5
2023-09-25T01:34:00+09:00,0.9,�k�k��,2.1,�k,19.5,92.8,0,0,0,0,0,0,1005.8,1019.5
2023-09-25T01:35:00+09:00,0.9,�k�k��,2.1,�k,19.3,92.2,0,0,0,0,0,0,1005.8,1019.5
2023-09-25T01:36:00+09:00,0.9,�k�k��,2.1,�k,19.2,91.9,0,0,0,0,0,0,1005.8,1019.5
2023-09-25T01:37:00+09:00,1,�k�k��,2.1,�k,19.2,92.1,0,0,0,0,0,0,1005.8,1019.5
2023-09-25T01:38:00+09:00,1,�k,2.4,�k�k��,19.2,92.2,0,0,0,0,0,0,1005.8,1019.5
2023-09-25T01:39:00+09:00,1.1,�k,2.4,�k�k��,19.2,92.3,0,0,0,0,0,0,1005.9,1019.6
2023-09-25T01:40:00+09:00,1.1,�k,2.7,�k,19.1,92.5,0,0,0,0,0,0,1005.8,1019.5
2023-09-25T01:41:00+09:00,1.2,�k,2.7,�k,19.1,92.3,0,0,0,0,0,0,1005.8,1019.5
2023-09-25T01:42:00+09:00,1.3,�k,2.7,�k,19.1,92.6,0,0,0,0,0,0,1005.8,1019.5
2023-09-25T01:43:00+09:00,1.2,�k,2.7,�k,18.9,92,0,0,0,0,0,0,1005.8,1019.5
2023-09-25T01:44:00+09:00,1.2,�k,2.7,�k,18.9,92.5,0,0,0,0,0,0,1005.8,1019.5
2023-09-25T01:45:00+09:00,1.2,�k,2.7,�k,18.9,92.7,0,0,0,0,0,0,1005.8,1019.5
2023-09-25T01:46:00+09:00,1.1,�k,2.7,�k,18.9,93.1,0,0,0,0,0,0,1005.8,1019.5
2023-09-25T01:47:00+09:00,1,�k,2.7,�k,19.1,93.5,0,0,0,0,0,0,1005.8,1019.5
2023-09-25T01:48:00+09:00,0.9,�k,2.7,�k,19,93.4,0,0,0,0,0,0,1005.9,1019.6
2023-09-25T01:49:00+09:00,0.9,�k,2.7,�k,19.1,93.5,0,0,0,0,0,0,1005.9,1019.6
2023-09-25T01:50:00+09:00,0.9,�k�k��,2.3,�k�k��,19.2,93.6,0,0,0,0,0,0,1005.9,1019.6
2023-09-25T01:51:00+09:00,0.8,�k�k��,2,�k�k��,19.1,93.5,0,0,0,0,0,0,1005.9,1019.6
2023-09-25T01:52:00+09:00,0.6,�k�k��,1.7,�k��,19,93,0,0,0,0,0,0,1005.8,1019.5
2023-09-25T01:53:00+09:00,0.7,�k�k��,1.7,�k��,19.1,93.1,0,0,0,0,0,0,1005.8,1019.5
2023-09-25T01:54:00+09:00,0.7,�k�k��,1.8,�k,19.2,93.3,0,0,0,0,0,0,1005.8,1019.5
2023-09-25T01:55:00+09:00,0.8,�k�k��,1.8,�k,19.2,93.5,0,0,0,0,0,0,1005.7,1019.4
2023-09-25T01:56:00+09:00,0.9,�k,1.8,�k,19.1,93.2,0,0,0,0,0,0,1005.7,1019.4
2023-09-25T01:57:00+09:00,1,�k,1.8,�k,19.2,93.1,0,0,0,0,0,0,1005.7,1019.4
2023-09-25T01:58:00+09:00,1,�k,1.8,�k,19.2,92.8,0,0,0,0,0,0,1005.7,1019.4
2023-09-25T01:59:00+09:00,1.1,�k,1.8,�k,19.3,93.1,0,0,0,0,0,0,1005.7,1019.4
2023-09-25T02:00:00+09:00,1.1,�k�k��,1.8,�k,19.4,93.1,0,0,0,0,0,0,1005.7,1019.4
2023-09-25T02:01:00+09:00,1.2,�k�k��,1.8,�k,19.5,93.1,0,0,0,0,0,0,1005.8,1019.5
2023-09-25T02:02:00+09:00,1.2,�k�k��,1.8,�k,19.4,93,0,0,0,0,0,0,1005.8,1019.5
2023-09-25T02:03:00+09:00,1.2,�k�k��,1.8,�k,19.3,92.4,0,0,0,0,0,0,1005.8,1019.5
2023-09-25T02:04:00+09:00,1.1,�k�k��,1.8,�k�k��,19.5,92.4,0,0,0,0,0,0,1005.8,1019.5
2023-09-25T02:05:00+09:00,1,�k,1.8,�k�k��,19.3,92.1,0,0,0,0,0,0,1005.8,1019.5
2023-09-25T02:06:00+09:00,1,�k,1.8,�k�k��,19.2,91.4,0,0,0,0,0,0,1005.8,1019.5
2023-09-25T02:07:00+09:00,0.9,�k,1.8,�k�k��,19.4,92.1,0,0,0,0,0,0,1005.8,1019.5
2023-09-25T02:08:00+09:00,0.9,�k�k��,1.8,�k�k��,19.3,92.1,0,0,0,0,0,0,1005.8,1019.5
2023-09-25T02:09:00+09:00,0.9,�k�k��,1.8,�k�k��,19.4,92,0,0,0,0,0,0,1005.8,1019.5
2023-09-25T02:10:00+09:00,0.8,�k�k��,1.8,�k�k��,19.3,92.3,0,0,0,0,0,0,1005.8,1019.5
2023-09-25T02:11:00+09:00,0.8,�k�k��,1.8,�k�k��,19.6,92.6,0,0,0,0,0,0,1005.8,1019.5
2023-09-25T02:12:00+09:00,0.8,�k�k��,2,�k��,19.5,92.6,0,0,0,0,0,0,1005.8,1019.5
2023-09-25T02:13:00+09:00,0.9,�k��,2,�k��,19.4,92,0,0,0,0,0,0,1005.8,1019.5
2023-09-25T02:14:00+09:00,1,�k��,2,�k��,19.3,91.7,0,0,0,0,0,0,1005.9,1019.6
2023-09-25T02:15:00+09:00,1,�k��,2,�k��,19.4,91.9,0,0,0,0,0,0,1005.8,1019.5
2023-09-25T02:16:00+09:00,1.1,�k��,2,�k��,19.2,91.7,0,0,0,0,0,0,1005.9,1019.6
2023-09-25T02:17:00+09:00,1,�k��,2,�k��,19.3,91.6,0,0,0,0,0,0,1005.9,1019.6
2023-09-25T02:18:00+09:00,1,�k�k��,2,�k��,19.3,91.9,0,0,0,0,0,0,1005.9,1019.6
2023-09-25T02:19:00+09:00,1.1,�k�k��,2.3,�k�k��,19.3,92.1,0,0,0,0,0,0,1005.9,1019.6
2023-09-25T02:20:00+09:00,1.2,�k�k��,2.7,�k�k��,19.4,92.4,0,0,0,0,0,0,1005.9,1019.6
2023-09-25T02:21:00+09:00,1.3,�k�k��,2.7,�k�k��,19.5,92.5,0,0,0,0,0,0,1005.9,1019.6
2023-09-25T02:22:00+09:00,1.3,�k,2.7,�k�k��,19.3,92.3,0,0,0,0,0,0,1005.9,1019.6
2023-09-25T02:23:00+09:00,1.4,�k,2.7,�k�k��,19.5,92.3,0,0,0,0,0,0,1005.8,1019.5
2023-09-25T02:24:00+09:00,1.5,�k�k��,2.7,�k�k��,19.6,92.5,0,0,0,0,0,0,1005.8,1019.5
2023-09-25T02:25:00+09:00,1.5,�k�k��,2.7,�k�k��,19.4,92,0,0,0,0,0,0,1005.8,1019.5
2023-09-25T02:26:00+09:00,1.5,�k�k��,2.7,�k�k��,19.4,91.4,0,0,0,0,0,0,1005.8,1019.5
2023-09-25T02:27:00+09:00,1.5,�k�k��,2.7,�k�k��,19.4,91.6,0,0,0,0,0,0,1005.9,1019.6
2023-09-25T02:28:00+09:00,1.6,�k�k��,2.7,�k�k��,19.3,91.4,0,0,0,0,0,0,1005.9,1019.6
2023-09-25T02:29:00+09:00,1.6,�k�k��,2.7,�k�k��,19.3,91.5,0,0,0,0,0,0,1005.9,1019.6
2023-09-25T02:30:00+09:00,1.5,�k�k��,2.7,�k�k��,19.3,91.8,0,0,0,0,0,0,1005.9,1019.6
2023-09-25T02:31:00+09:00,1.5,�k�k��,2.7,�k�k��,19.3,92,0,0,0,0,0,0,1005.9,1019.6
2023-09-25T02:32:00+09:00,1.4,�k�k��,2.7,�k�k��,19.3,92.3,0,0,0,0,0,0,1005.9,1019.6
2023-09-25T02:33:00+09:00,1.4,�k�k��,2.7,�k�k��,19.4,92.3,0,0,0,0,0,0,1005.9,1019.6
2023-09-25T02:34:00+09:00,1.4,�k�k��,2.7,�k�k��,19.5,92.6,0,0,0,0,0,0,1005.9,1019.6
2023-09-25T02:35:00+09:00,1.4,�k�k��,2.7,�k�k��,19.5,92.4,0,0,0,0,0,0,1005.9,1019.6
2023-09-25T02:36:00+09:00,1.5,�k�k��,2.7,�k�k��,19.5,92.2,0,0,0,0,0,0,1005.9,1019.6
2023-09-25T02:37:00+09:00,1.7,�k�k��,2.7,�k�k��,19.5,92,0,0,0,0,0,0,1005.8,1019.5
2023-09-25T02:38:00+09:00,1.7,�k�k��,2.7,�k�k��,19.4,91.8,0,0,0,0,0,0,1005.8,1019.5
2023-09-25T02:39:00+09:00,1.8,�k�k��,2.7,�k�k��,19.5,92.2,0,0,0,0,0,0,1005.8,1019.5
2023-09-25T02:40:00+09:00,1.9,�k�k��,2.9,�k��,19.5,92.3,0,0,0,0,0,0,1005.8,1019.5
2023-09-25T02:41:00+09:00,2,�k�k��,3,�k��,19.6,92.1,0,0,0,0,0,0,1005.8,1019.5
2023-09-25T02:42:00+09:00,2,�k��,3,�k��,19.5,92.1,0,0,0,0,0,0,1005.8,1019.5
2023-09-25T02:43:00+09:00,2.1,�k��,3,�k��,19.3,91.3,0,0,0,0,0,0,1005.8,1019.5
2023-09-25T02:44:00+09:00,2.1,�k��,3,�k��,19.4,91.3,0,0,0,0,0,0,1005.8,1019.5
2023-09-25T02:45:00+09:00,1.9,�k��,3,�k��,19.5,91.6,0,0,0,0,0,0,1005.8,1019.5
2023-09-25T02:46:00+09:00,1.8,�k��,3,�k��,19.4,91.7,0,0,0,0,0,0,1005.8,1019.5
2023-09-25T02:47:00+09:00,1.7,�k��,3,�k��,19.5,91.8,0,0,0,0,0,0,1005.8,1019.5
2023-09-25T02:48:00+09:00,1.5,�k��,3,�k��,19.6,91.9,0,0,0,0,0,0,1005.8,1019.5
2023-09-25T02:49:00+09:00,1.4,�k��,3,�k��,19.4,91.7,0,0,0,0,0,0,1005.8,1019.5
2023-09-25T02:50:00+09:00,1.2,�k�k��,3,�k��,19.6,91.9,0,0,0,0,0,0,1005.8,1019.5
2023-09-25T02:51:00+09:00,1.1,�k�k��,2.6,�k��,19.5,91.8,0,0,0,0,0,0,1005.7,1019.4
2023-09-25T02:52:00+09:00,1,�k�k��,2.5,�k��,19.6,91.6,0,0,0,0,0,0,1005.8,1019.5
2023-09-25T02:53:00+09:00,0.9,�k,2.3,�k��,19.5,91.6,0,0,0,0,0,0,1005.7,1019.4
2023-09-25T02:54:00+09:00,0.8,�k,1.8,�k��,19.5,91.6,0,0,0,0,0,0,1005.8,1019.5
2023-09-25T02:55:00+09:00,0.8,�k,2,�k��,19.4,91.2,0,0,0,0,0,0,1005.8,1019.5
2023-09-25T02:56:00+09:00,0.8,�k�k��,2,�k��,19.4,91.5,0,0,0,0,0,0,1005.8,1019.5
2023-09-25T02:57:00+09:00,0.9,�k�k��,2,�k��,19.4,91.8,0,0,0,0,0,0,1005.8,1019.5
2023-09-25T02:58:00+09:00,0.9,�k�k��,2,�k��,19.5,92.2,0,0,0,0,0,0,1005.8,1019.5
2023-09-25T02:59:00+09:00,0.9,�k�k��,2,�k��,19.5,92.3,0,0,0,0,0,0,1005.8,1019.5
2023-09-25T03:00:00+09:00,0.9,�k�k��,2,�k��,19.5,92,0,0,0,0,0,0,1005.8,1019.5
2023-09-25T03:01:00+09:00,0.9,�k�k��,2,�k��,19.5,92,0,0,0,0,0,0,1005.8,1019.5
2023-09-25T03:02:00+09:00,1,�k�k��,2.4,�k�k��,19.5,91.8,0,0,0,0,0,0,1005.8,1019.5
2023-09-25T03:03:00+09:00,1,�k�k��,2.6,�k,19.5,91.9,0,0,0,0,0,0,1005.8,1019.5
2023-09-25T03:04:00+09:00,1.1,�k�k��,2.6,�k,19.7,92.3,0,0,0,0,0,0,1005.7,1019.4
2023-09-25T03:05:00+09:00,1.2,�k,2.7,���k��,19.6,91.9,0,0,0,0,0,0,1005.7,1019.4
2023-09-25T03:06:00+09:00,1.3,�k,3.6,�k��,19.6,91.6,0,0,0,0,0,0,1005.7,1019.4
2023-09-25T03:07:00+09:00,1.3,�k,3.6,�k��,19.6,91.4,0,0,0,0,0,0,1005.7,1019.4
2023-09-25T03:08:00+09:00,1.4,�k�k��,3.6,�k��,19.7,91.4,0,0,0,0,0,0,1005.7,1019.4
2023-09-25T03:09:00+09:00,1.4,�k�k��,3.6,�k��,19.6,91.3,0,0,0,0,0,0,1005.7,1019.4
2023-09-25T03:10:00+09:00,1.5,�k�k��,3.6,�k��,19.8,91.5,0,0,0,0,0,0,1005.7,1019.4
2023-09-25T03:11:00+09:00,1.5,�k�k��,3.6,�k��,19.8,91.3,0,0,0,0,0,0,1005.7,1019.4
2023-09-25T03:12:00+09:00,1.4,�k�k��,3.6,�k��,19.8,91,0,0,0,0,0,0,1005.7,1019.4
2023-09-25T03:13:00+09:00,1.3,�k�k��,3.6,�k��,19.8,91.1,0,0,0,0,0,0,1005.6,1019.3
2023-09-25T03:14:00+09:00,1.2,�k�k��,3.6,�k��,19.9,90.7,0,0,0,0,0,0,1005.7,1019.4
2023-09-25T03:15:00+09:00,1.1,�k�k��,3.6,�k��,19.6,90.3,0,0,0,0,0,0,1005.6,1019.3
2023-09-25T03:16:00+09:00,0.9,�k,2.2,�k��,19.5,89.7,0,0,0,0,0,0,1005.6,1019.3
2023-09-25T03:17:00+09:00,0.9,�k�k��,1.9,�k��,19.4,90.1,0,0,0,0,0,0,1005.6,1019.3
2023-09-25T03:18:00+09:00,0.8,�k�k��,1.9,�k��,19.4,90.5,0,0,0,0,0,0,1005.6,1019.3
2023-09-25T03:19:00+09:00,0.8,�k�k��,1.9,�k��,19.4,91,0,0,0,0,0,0,1005.6,1019.3
2023-09-25T03:20:00+09:00,0.6,�k��,1.6,�k��,19.5,91.8,0,0,0,0,0,0,1005.6,1019.3
2023-09-25T03:21:00+09:00,0.5,�k��,1.2,���k��,19.4,91.8,0,0,0,0,0,0,1005.6,1019.3
2023-09-25T03:22:00+09:00,0.5,�k��,1.2,���k��,19.3,91.8,0,0,0,0,0,0,1005.6,1019.3
2023-09-25T03:23:00+09:00,0.5,�k��,1.2,���k��,19.4,92.2,0,0,0,0,0,0,1005.6,1019.3
2023-09-25T03:24:00+09:00,0.4,�k�k��,1.1,��,19.3,92.1,0,0,0,0,0,0,1005.5,1019.2
2023-09-25T03:25:00+09:00,0.3,�k�k��,1.1,��,19.3,92.3,0,0,0,0,0,0,1005.5,1019.2
2023-09-25T03:26:00+09:00,0.3,�k,1,���k��,19.3,92.5,0,0,0,0,0,0,1005.5,1019.2
2023-09-25T03:27:00+09:00,0.3,�k,0.9,�k�k��,19.3,92.7,0,0,0,0,0,0,1005.5,1019.2
2023-09-25T03:28:00+09:00,0.3,�k,1.1,�k�k��,19.2,92.8,0,0,0,0,0,0,1005.5,1019.2
2023-09-25T03:29:00+09:00,0.3,�k�k��,1.3,�k�k��,19.2,92.9,0,0,0,0,0,0,1005.4,1019.1
2023-09-25T03:30:00+09:00,0.4,�k�k��,1.4,�k��,19.3,93,0,0,0,0,0,0,1005.4,1019.1
2023-09-25T03:31:00+09:00,0.5,�k�k��,1.8,�k�k��,19.3,93.2,0,0,0,0,0,0,1005.4,1019.1
2023-09-25T03:32:00+09:00,0.6,�k�k��,1.8,�k�k��,19.3,93.4,0,0,0,0,0,0,1005.4,1019.1
2023-09-25T03:33:00+09:00,0.8,�k�k��,1.8,�k�k��,19.4,93.6,0,0,0,0,0,0,1005.4,1019.1
2023-09-25T03:34:00+09:00,0.9,�k�k��,1.8,�k�k��,19.4,93.4,0,0,0,0,0,0,1005.3,1019
2023-09-25T03:35:00+09:00,1,�k�k��,2,�k,19.6,93.6,0,0,0,0,0,0,1005.3,1019
2023-09-25T03:36:00+09:00,1.1,�k�k��,2,�k,19.4,93.2,0,0,0,0,0,0,1005.3,1019
2023-09-25T03:37:00+09:00,1.2,�k�k��,2.7,�k,19.3,92.5,0,0,0,0,0,0,1005.3,1019
2023-09-25T03:38:00+09:00,1.3,�k�k��,2.7,�k,19.3,92.4,0,0,0,0,0,0,1005.3,1019
2023-09-25T03:39:00+09:00,1.4,�k�k��,2.9,�k�k��,19.2,92.3,0,0,0,0,0,0,1005.3,1019
2023-09-25T03:40:00+09:00,1.5,�k�k��,3,�k�k��,19.2,92.5,0,0,0,0,0,0,1005.3,1019
2023-09-25T03:41:00+09:00,1.6,�k�k��,3,�k�k��,19.3,92.6,0,0,0,0,0,0,1005.3,1019
2023-09-25T03:42:00+09:00,1.6,�k�k��,3,�k�k��,19.2,92.6,0,0,0,0,0,0,1005.3,1019
2023-09-25T03:43:00+09:00,1.6,�k�k��,3,�k�k��,19.2,92.8,0,0,0,0,0,0,1005.4,1019.1
2023-09-25T03:44:00+09:00,1.6,�k�k��,3,�k�k��,19.3,93,0,0,0,0,0,0,1005.4,1019.1
2023-09-25T03:45:00+09:00,1.5,�k�k��,3,�k�k��,19.2,93.2,0,0,0,0,0,0,1005.4,1019.1
2023-09-25T03:46:00+09:00,1.5,�k�k��,3,�k�k��,19.1,93,0,0,0,0,0,0,1005.4,1019.1
2023-09-25T03:47:00+09:00,1.4,�k,3,�k�k��,19.1,92.8,0,0,0,0,0,0,1005.3,1019
2023-09-25T03:48:00+09:00,1.4,�k,3,�k�k��,19.1,93.1,0,0,0,0,0,0,1005.3,1019
2023-09-25T03:49:00+09:00,1.3,�k,3,�k�k��,19.1,93.1,0,0,0,0,0,0,1005.3,1019
2023-09-25T03:50:00+09:00,1.3,�k,2.6,�k�k��,19,93.4,0,0,0,0,0,0,1005.2,1018.9
2023-09-25T03:51:00+09:00,1.3,�k,2.6,�k�k��,19.1,93.5,0,0,0,0,0,0,1005.2,1018.9
2023-09-25T03:52:00+09:00,1.3,�k,2.6,�k�k��,19.2,94,0,0,0,0,0,0,1005.2,1018.9
2023-09-25T03:53:00+09:00,1.4,�k,2.6,�k�k��,19.1,93.9,0,0,0,0,0,0,1005.2,1018.9
2023-09-25T03:54:00+09:00,1.4,�k,2.6,�k�k��,19.3,93.9,0,0,0,0,0,0,1005.3,1019
2023-09-25T03:55:00+09:00,1.4,�k,2.6,�k�k��,19.2,94,0,0,0,0,0,0,1005.3,1019
2023-09-25T03:56:00+09:00,1.5,�k,2.6,�k�k��,19.1,93.2,0,0,0,0,0,0,1005.3,1019
2023-09-25T03:57:00+09:00,1.5,�k,2.6,�k�k��,19,93.2,0,0,0,0,0,0,1005.3,1019
2023-09-25T03:58:00+09:00,1.4,�k,2.6,�k�k��,18.9,93.1,0,0,0,0,0,0,1005.3,1019
2023-09-25T03:59:00+09:00,1.4,�k�k��,2.6,�k�k��,18.9,93.4,0,0,0,0,0,0,1005.3,1019
2023-09-25T04:00:00+09:00,1.4,�k�k��,2.6,�k��,18.9,93.6,0,0,0,0,0,0,1005.3,1019
2023-09-25T04:01:00+09:00,1.4,�k��,2.6,�k��,19,93.9,0,0,0,0,0,0,1005.3,1019
2023-09-25T04:02:00+09:00,1.4,�k��,2.6,�k��,18.9,94,0,0,0,0,0,0,1005.3,1019
2023-09-25T04:03:00+09:00,1.4,�k��,2.6,�k��,18.9,94.1,0,0,0,0,0,0,1005.3,1019
2023-09-25T04:04:00+09:00,1.4,���k��,2.6,�k��,18.8,94.2,0,0,0,0,0,0,1005.3,1019
2023-09-25T04:05:00+09:00,1.5,���k��,2.6,�k��,18.8,94.4,0,0,0,0,0,0,1005.3,1019
2023-09-25T04:06:00+09:00,1.6,���k��,2.8,��,18.6,94.2,0,0,0,0,0,0,1005.3,1019
2023-09-25T04:07:00+09:00,1.8,���k��,3.1,��,18.5,94,0,0,0,0,0,0,1005.4,1019.1
2023-09-25T04:08:00+09:00,2,���k��,3.5,��,18.4,94.2,0,0,0,0,0,0,1005.4,1019.1
2023-09-25T04:09:00+09:00,2.2,���k��,3.5,��,18.3,94.6,0,0,0,0,0,0,1005.4,1019.1
2023-09-25T04:10:00+09:00,2.3,��,3.7,��,18.3,94.9,0,0,0,0,0,0,1005.4,1019.1
2023-09-25T04:11:00+09:00,2.4,��,3.7,��,18.3,95.3,0,0,0,0,0,0,1005.4,1019.1
2023-09-25T04:12:00+09:00,2.6,��,4.4,��,18.2,95.6,0,0,0,0,0,0,1005.4,1019.1
2023-09-25T04:13:00+09:00,2.6,��,4.4,��,18.2,95.7,0,0,0,0,0,0,1005.4,1019.1
2023-09-25T04:14:00+09:00,2.7,��,4.4,��,18.3,96,0,0,0,0,0,0,1005.4,1019.1
2023-09-25T04:15:00+09:00,2.7,��,4.4,��,18.2,96,0,0,0,0,0,0,1005.5,1019.2
2023-09-25T04:16:00+09:00,2.6,��,4.4,��,18.2,96.1,0,0,0,0,0,0,1005.5,1019.2
2023-09-25T04:17:00+09:00,2.5,��,4.4,��,18.3,96.3,0,0,0,0,0,0,1005.5,1019.2
2023-09-25T04:18:00+09:00,2.3,��,4.4,��,18.3,96.5,0,0,0,0,0,0,1005.5,1019.2
2023-09-25T04:19:00+09:00,2.2,��,4.4,��,18.5,96.6,0,0,0,0,0,0,1005.5,1019.2
2023-09-25T04:20:00+09:00,2,��,4.4,��,18.5,96.7,0,0,0,0,0,0,1005.5,1019.2
2023-09-25T04:21:00+09:00,1.8,��,4.4,��,18.5,96.8,0,0,0,0,0,0,1005.5,1019.2
2023-09-25T04:22:00+09:00,1.6,���k��,3.8,��,18.6,96.7,0,0,0,0,0,0,1005.5,1019.2
2023-09-25T04:23:00+09:00,1.4,���k��,3.5,��,18.8,96.8,0,0,0,0,0,0,1005.5,1019.2
2023-09-25T04:24:00+09:00,1.3,���k��,2.4,���k��,18.8,96.8,0,0,0,0,0,0,1005.5,1019.2
2023-09-25T04:25:00+09:00,1.2,�k��,2.3,��,18.8,96.6,0,0,0,0,0,0,1005.5,1019.2
2023-09-25T04:26:00+09:00,1.1,�k��,2.3,��,18.9,96.5,0,0,0,0,0,0,1005.5,1019.2
2023-09-25T04:27:00+09:00,1,�k��,2.1,���k��,18.9,96.3,0,0,0,0,0,0,1005.5,1019.2
2023-09-25T04:28:00+09:00,0.9,�k��,1.8,���k��,18.9,96.1,0,0,0,0,0,0,1005.4,1019.1
2023-09-25T04:29:00+09:00,0.8,�k�k��,1.8,���k��,18.9,95.9,0,0,0,0,0,0,1005.4,1019.1
2023-09-25T04:30:00+09:00,0.7,�k�k��,1.6,���k��,18.9,95.6,0,0,0,0,0,0,1005.4,1019.1
2023-09-25T04:31:00+09:00,0.7,�k,1.6,���k��,18.9,95.6,0,0,0,0,0,0,1005.4,1019.1
2023-09-25T04:32:00+09:00,0.6,�k,1.5,�k��,19,95.5,0,0,0,0,0,0,1005.4,1019.1
2023-09-25T04:33:00+09:00,0.6,�k,1.5,�k��,18.9,95.4,0,0,0,0,0,0,1005.4,1019.1
2023-09-25T04:34:00+09:00,0.6,�k,1.5,�k��,18.8,95.2,0,0,0,0,0,0,1005.5,1019.2
2023-09-25T04:35:00+09:00,0.6,�k�k��,1.5,�k��,18.8,95.1,0,0,0,0,0,0,1005.4,1019.1
2023-09-25T04:36:00+09:00,0.5,�k�k��,1.5,�k��,18.8,95.1,0,0,0,0,0,0,1005.4,1019.1
2023-09-25T04:37:00+09:00,0.4,�k��,1.1,�k��,18.8,95.1,0,0,0,0,0,0,1005.4,1019.1
2023-09-25T04:38:00+09:00,0.4,�k��,1.1,�k��,18.7,94.9,0,0,0,0,0,0,1005.4,1019.1
2023-09-25T04:39:00+09:00,0.4,�k��,1.1,�k��,18.6,94.7,0,0,0,0,0,0,1005.4,1019.1
2023-09-25T04:40:00+09:00,0.4,�k��,1.1,�k��,18.6,94.9,0,0,0,0,0,0,1005.4,1019.1
2023-09-25T04:41:00+09:00,0.4,�k��,0.9,�k,18.7,95.3,0,0,0,0,0,0,1005.4,1019.1
2023-09-25T04:42:00+09:00,0.4,�k��,0.9,�k,18.7,95.4,0,0,0,0,0,0,1005.4,1019.1
2023-09-25T04:43:00+09:00,0.4,�k��,1.1,���k��,18.8,95.5,0,0,0,0,0,0,1005.4,1019.1
2023-09-25T04:44:00+09:00,0.4,�k�k��,1.1,���k��,18.8,95.5,0,0,0,0,0,0,1005.4,1019.1
2023-09-25T04:45:00+09:00,0.4,�k�k��,1.2,�k��,18.7,95.4,0,0,0,0,0,0,1005.5,1019.2
2023-09-25T04:46:00+09:00,0.4,�k,1.2,�k��,18.7,95.5,0,0,0,0,0,0,1005.5,1019.2
2023-09-25T04:47:00+09:00,0.4,�k,1.2,�k��,18.7,95.3,0,0,0,0,0,0,1005.5,1019.2
2023-09-25T04:48:00+09:00,0.4,�k�k��,1.2,�k��,18.6,95.4,0,0,0,0,0,0,1005.5,1019.2
2023-09-25T04:49:00+09:00,0.4,�k�k��,1.2,�k��,18.8,95.5,0,0,0,0,0,0,1005.5,1019.2
2023-09-25T04:50:00+09:00,0.4,�k�k��,1.2,�k��,18.7,95.4,0,0,0,0,0,0,1005.5,1019.2
2023-09-25T04:51:00+09:00,0.4,�k�k��,1.3,���k��,18.7,95.5,0,0,0,0,0,0,1005.5,1019.2
2023-09-25T04:52:00+09:00,0.4,�k��,1.3,���k��,18.7,95.5,0,0,0,0,0,0,1005.5,1019.2
2023-09-25T04:53:00+09:00,0.5,�k��,1.3,���k��,18.7,95.5,0,0,0,0,0,0,1005.5,1019.2
2023-09-25T04:54:00+09:00,0.5,�k��,1.3,���k��,18.7,95.5,0,0,0,0,0,0,1005.5,1019.2
2023-09-25T04:55:00+09:00,0.5,�k��,1.3,���k��,18.7,95.5,0,0,0,0,0,0,1005.5,1019.2
2023-09-25T04:56:00+09:00,0.5,���k��,1.3,���k��,18.7,95.5,0,0,0,0,0,0,1005.5,1019.2